ATLAS 5 CENTAUR DEB, 44980

Orbit data source: Space-Track

ATLAS 5 CENTAUR DEB, 44980 is space debris in HEO originally from a launch on Wed, 17 Oct 2018 UTC launched from the Air Force Eastern Test Range (AFETR). Debris objects in space refer to the collection of defunct objects orbiting the Earth. Examples of debris include non-operational satellites, rocket bodies, and fragments generated from explosions, collisions, or faulty payload assembly.

Loading next visibility...
Identifier
44980, 2018-079BP
Orbit
HEO
Last TLE update
4 days ago
Origin
Flag of USUnited Launch Alliance/Lockheed Martin (US)
Manufacturer
ULA Decatur
Mission
Spacecraft
Bus & Motor
Unknown
Mass
Unknown
Launch date (UTC)
2018-10-17 (7 years ago)
Launch vehicle
Unknown
Launch site
Air Force Eastern Test Range (AFETR)
Object type
Payload
Rocket body
Debris
Shape & HBR
Unknown
Radar Cross Section
RCS unknown

Expand to show TLE details & history

TLE from 4 days ago
0 ATLAS 5 CENTAUR DEB
1 44980U 18079BP  25190.96120291 -.00000069  00000-0  00000-0 0  9993
2 44980  13.0962 347.3091 4539723  63.7831 335.6945  2.15832038 44461
Epoch: 2025-07-09T23:04Z
TLE epoch observation values (Epoch: 2025-07-09T23:04:07.931Z)
Latitude
0.00009°
Longitude
73.17653°
Altitude
10,362.644 km
Speed
5.645 km/s
True Right ascension
23h 09m 22s
True Declination
0° 00' 00"
Sunlit
Object was in daylight at epoch
Visualization orbit readout
Latitude
-12.66308°
Longitude
-32.60188°
Altitude
29,896.638 km
Speed
2.494 km/s
Apparent Right ascension
15h 42m 07s
Apparent Declination
-17° 22' 48"
Sunlit
Object is in daylight
Visualization observer readout
Local Sidereal Time
00:24:22
Azimuth
283.13° WNW
Elevation
-41.887°
Doppler factor
1
Orbital elements
Apogee altitude
30,399.739 km
Perigee altitude
7,433.501 km
Semi-major axis
25,294.757 km
Eccentricity
0.45397
Inclination
13.0962°
RAAN
347.3091°
Arg. of periapsis
63.7831°
True anomaly
Unknown
Mean anomaly
335.6945°
Eccentric anomaly
Unknown
Mean motion
0.53951 °/min
Orbital period
667.28 mins
BSTAR
0
Loading maneuver chart data...
Loading SW <> Apogee altitude chart data...

ATLAS 5 CENTAUR DEB Visibility forecast

Observer location: undefined°, undefined°

Span
Click to sort rows by Start time (UTC) header in descending order
Start Az.
Max El. time (UTC)
Max El. Az.
Max El.
End time (UTC)
End Az.
120 mins2025-07-13 16:31:21.703Z247.268° WSW2025-07-13 17:08:21.703Z177.284° S35.291°2025-07-13 18:31:21.703Z111.731° ESE
|